GEFSGL_con_maxscp_312.txt.gz
SCP
2 2 3 4 5 6 6 6 5 3 2 2 2 2 2 1 1 1 1 1 1 1 1 1 1 1 1 1 1 1 1 1 1 1 1 0 0 0 0 0 0 0 0
2 2 3 4 4 5 5 5 4 3 2 2 3 3 2 1 1 1 1 1 1 1 1 1 1 1 1 1 1 1 1 1 1 0 0 1 0 0 0 0 0 0 0
3 3 3 3 3 4 4 4 3 3 3 4 4 3 2 1 2 2 2 1 1 2 2 2 2 2 1 1 1 1 1 1 0 0 0 0 0 0 0 0 0 0 0
4 4 3 3 3 3 3 3 3 4 4 4 4 4 2 1 2 2 2 2 2 2 2 2 2 2 1 1 1 1 1 1 1 0 0 0 0 0 0 0 0 0 0
5 4 3 3 2 2 3 3 4 5 5 5 5 3 2 2 2 2 2 2 2 2 2 2 2 2 2 2 1 1 1 1 1 1 0 0 1 1 1 0 0 0 0
6 6 4 3 3 2 3 3 4 5 6 6 5 3 2 2 2 2 2 2 3 3 3 3 2 2 2 2 1 1 1 1 1 1 1 1 1 1 1 1 0 0 0
7 7 5 4 3 3 3 3 4 5 6 6 4 3 3 3 3 2 2 2 3 3 3 3 3 2 2 2 2 2 1 2 2 2 2 1 1 1 1 1 1 1 0
8 7 5 4 4 4 4 3 4 5 5 5 4 4 3 3 3 3 2 2 3 3 3 3 3 3 3 3 3 2 2 2 2 2 2 2 1 0 1 1 1 1 1
8 7 5 5 5 5 4 4 4 4 5 5 5 5 4 3 3 2 2 2 3 3 4 4 4 4 3 3 3 3 3 3 3 2 2 1 1 0 0 1 1 1 1
10 8 6 5 5 5 4 4 4 4 5 6 7 6 5 4 3 1 1 3 4 4 4 4 3 3 3 2 3 3 4 4 4 3 2 1 1 0 0 1 1 1 2
11 10 8 7 6 5 5 5 5 5 6 7 8 7 6 5 3 2 1 2 4 5 5 5 4 3 2 1 2 3 3 4 5 5 4 3 2 1 1 2 1 2 2
11 11 11 10 8 6 6 6 5 6 6 7 7 7 6 5 4 3 1 1 2 4 5 4 4 2 1 0 1 1 2 2 4 5 6 5 3 2 3 3 3 2 2
14 14 13 12 10 8 7 6 6 6 6 6 6 6 6 6 5 3 1 0 1 2 2 3 2 2 1 0 0 0 0 1 2 4 6 6 5 4 4 6 6 4 3
17 17 16 14 12 10 8 7 6 6 6 6 6 6 6 6 6 5 3 1 1 1 1 1 1 1 1 1 1 1 0 0 1 3 5 6 5 5 7 8 7 5 4
18 18 17 15 13 11 9 7 6 5 5 5 6 6 7 7 7 6 5 3 2 1 1 1 1 1 1 2 2 2 1 1 1 2 3 5 5 6 7 7 6 4 3
16 17 18 16 14 12 10 8 6 4 3 3 3 5 6 6 6 4 3 4 3 1 1 1 1 1 2 2 3 3 3 2 2 2 3 3 4 4 4 4 3 2 2
12 15 17 17 16 14 12 9 6 3 1 1 1 2 3 4 3 1 1 1 1 1 2 2 2 2 2 3 3 3 3 2 2 2 3 2 2 2 2 2 2 2 1
10 13 16 18 18 17 14 11 8 5 2 1 0 0 1 1 1 0 0 0 0 1 3 5 4 4 3 3 3 2 1 1 1 1 1 1 1 1 1 1 2 2 2
9 12 15 18 19 18 17 13 9 6 4 2 1 0 0 0 0 0 0 1 2 2 4 5 5 4 3 2 1 1 0 0 0 0 0 1 1 0 1 1 1 2 2
8 10 14 17 19 19 17 14 10 7 5 3 1 1 0 0 0 0 1 2 3 3 4 4 3 2 1 1 1 0 0 0 0 0 0 0 0 0 0 1 1 1 2
7 9 12 16 19 20 17 14 10 7 4 3 2 1 0 0 1 1 1 2 2 2 2 1 1 1 0 0 0 0 0 0 0 0 0 0 0 0 0 0 0 1 1
7 8 12 16 19 19 17 13 10 6 4 3 1 1 0 0 1 1 1 1 1 1 0 0 0 0 0 0 0 0 0 0 0 0 0 0 0 0 0 0 0 0 0
6 8 12 16 19 18 16 13 9 6 4 3 1 0 0 0 0 1 1 0 0 0 0 0 0 0 0 0 0 0 0 0 0 1 1 1 0 0 0 0 0 0 0
5 8 12 16 17 17 16 13 9 6 4 3 1 0 0 0 0 1 1 1 0 0 0 0 0 0 0 0 0 0 0 0 0 1 1 0 0 0 0 0 0 0 0
5 8 13 15 16 16 16 13 8 5 4 3 1 0 0 0 0 1 1 1 1 0 0 0 0 0 0 0 0 0 0 0 0 0 0 0 0 0 0 0 0 0 0
6 9 13 14 14 14 14 11 8 5 4 3 2 0 0 0 0 1 1 1 1 1 1 1 1 0 0 0 0 0 0 0 0 0 0 0 0 0 0 0 0 0 0

GEFSGL_con_maxscp_318.txt.gz
SCP
2 1 1 1 1 1 1 2 3 3 4 3 2 1 1 1 1 1 1 1 1 1 1 1 1 2 2 2 2 2 2 1 1 1 1 0 0 0 0 0 0 0 0
1 1 1 1 1 1 1 2 3 4 4 3 2 1 1 1 2 1 1 1 1 1 1 1 1 2 2 2 2 2 2 1 1 1 1 0 0 0 0 0 0 0 0
1 1 2 2 2 1 1 2 3 3 3 3 2 1 1 2 2 2 1 1 1 1 1 1 1 2 2 2 2 2 1 1 1 1 1 0 0 0 0 0 0 0 0
2 2 2 2 2 1 1 2 2 2 3 2 2 2 2 2 2 2 1 1 1 1 1 1 1 2 2 2 1 1 1 1 1 1 0 0 0 0 0 0 0 0 0
2 2 2 3 2 2 1 1 1 2 2 2 2 2 2 2 2 2 2 1 1 1 1 1 2 2 1 1 1 1 1 1 1 1 1 0 0 0 0 0 0 0 0
3 3 3 4 4 3 2 2 1 1 2 2 2 2 2 2 2 1 1 2 2 2 2 2 2 2 1 1 1 1 1 1 1 1 1 1 1 1 1 1 1 1 1
4 4 5 6 5 4 3 3 2 2 1 2 2 2 2 2 2 1 1 1 2 2 2 2 2 2 2 2 2 2 1 1 2 2 2 1 2 2 2 2 1 1 1
4 5 6 7 6 4 4 3 3 2 2 2 2 2 2 2 1 1 1 1 2 2 2 2 2 2 2 2 3 3 2 2 2 2 2 2 2 2 3 3 3 2 2
3 4 6 6 5 4 3 3 3 2 2 2 2 2 2 2 1 1 1 2 2 2 2 2 2 2 2 2 3 3 3 3 2 2 2 2 2 2 2 3 3 3 3
3 4 4 5 4 3 2 2 2 2 2 1 1 2 2 2 1 1 1 2 2 2 2 2 2 2 1 1 2 3 3 3 3 3 3 2 2 2 2 2 3 4 4
3 3 3 3 3 3 3 3 3 2 2 1 1 2 2 2 2 1 1 1 2 2 2 2 2 1 1 0 1 2 2 3 4 4 3 3 3 4 3 3 3 4 4
3 3 3 3 3 3 3 3 4 3 2 2 2 2 2 2 2 2 1 1 1 2 2 2 1 1 0 0 0 1 1 1 2 3 3 3 4 5 5 5 4 4 4
3 3 3 3 3 4 4 4 4 4 3 2 2 2 3 3 2 2 2 1 1 1 2 2 1 0 0 0 0 0 0 0 1 2 2 3 3 4 4 5 4 4 4
3 3 3 3 4 5 5 5 5 5 4 3 3 3 3 3 3 2 2 1 1 1 1 1 1 0 0 0 0 0 0 0 1 1 2 2 2 3 3 3 4 4 4
3 3 3 3 4 5 6 6 6 5 4 4 3 4 4 3 3 2 1 1 0 0 1 1 1 1 1 1 1 1 1 0 1 1 1 2 2 2 2 3 3 3 3
2 3 3 4 5 6 7 7 6 5 3 2 2 3 3 2 2 1 0 0 0 0 0 1 1 1 1 1 1 1 1 1 1 1 1 1 2 2 2 3 3 3 3
2 3 3 4 5 7 8 7 7 5 3 2 1 1 1 1 1 0 0 0 0 0 0 1 1 2 2 2 2 2 2 2 1 1 1 2 2 2 3 3 3 2 2
3 3 3 5 6 8 9 9 8 7 6 4 2 1 0 0 0 0 0 0 0 0 0 0 1 2 2 2 2 2 2 2 2 2 2 2 3 3 3 3 2 1 1
3 2 3 5 7 8 10 10 10 9 8 7 5 2 0 0 0 0 0 0 0 0 0 0 1 2 3 3 3 2 2 2 2 2 2 2 2 2 2 1 1 0 0
2 2 2 4 6 9 10 11 11 10 9 8 7 4 1 0 0 0 0 0 0 0 0 0 1 2 3 4 3 3 2 2 1 1 1 1 1 1 1 1 0 0 0
1 1 1 3 5 8 10 11 11 11 10 9 8 6 2 0 1 1 0 0 0 0 0 0 1 2 3 4 3 3 2 1 1 1 1 1 1 1 1 1 0 0 0
1 1 1 2 4 7 9 11 12 11 10 10 9 6 2 1 1 1 1 0 0 0 0 0 1 2 3 3 3 2 1 1 1 0 0 0 0 1 1 1 0 0 0
1 1 2 3 4 6 9 11 11 11 11 11 10 8 3 1 1 1 1 0 0 0 0 1 1 2 2 2 1 1 1 0 1 0 0 0 0 0 1 1 0 0 0
0 1 2 4 6 7 8 10 10 11 11 12 12 10 6 3 1 1 1 0 0 0 1 1 1 1 1 1 0 0 0 0 0 0 0 0 0 0 0 1 1 0 0
0 1 3 5 6 7 7 8 9 10 12 13 13 12 8 4 2 1 0 0 0 0 1 1 1 1 0 0 0 0 0 0 0 0 0 0 0 0 0 0 1 1 0
0 1 2 4 6 7 7 7 8 10 12 13 14 13 10 5 2 0 0 0 0 0 1 1 1 1 1 0 0 0 0 0 0 0 0 0 0 0 0 0 1 1 1

GEFSGL_con_maxscp_324.txt.gz
SCP
4 5 6 8 9 9 8 8 6 4 3 2 2 1 2 3 4 4 5 5 6 5 4 3 3 3 3 3 2 2 2 2 1 1 1 1 1 1 1 1 1 1 1
5 5 6 8 10 10 9 7 6 5 4 3 2 2 2 2 3 4 5 5 6 6 5 4 3 3 3 3 3 2 2 2 2 1 1 1 1 1 1 1 1 1 1
6 6 8 10 11 11 9 8 6 5 4 3 2 1 2 2 3 5 5 6 6 6 5 5 4 3 3 4 3 3 2 2 2 1 1 1 1 2 2 1 1 1 1
7 8 9 9 10 10 10 8 8 7 6 4 2 1 1 2 4 5 6 6 6 5 5 5 4 3 4 5 4 3 3 2 2 2 1 2 2 2 2 2 1 1 1
8 8 8 8 9 10 10 10 11 9 7 5 3 2 2 3 4 4 5 5 5 5 4 4 4 3 3 4 3 3 3 3 2 2 2 2 2 3 2 2 1 1 1
8 7 7 7 8 9 10 12 13 12 9 6 4 3 3 3 3 3 3 4 4 4 4 4 4 3 3 3 2 2 2 2 2 2 2 2 3 3 3 3 2 2 2
8 7 6 7 8 8 9 11 12 12 10 7 4 3 3 3 2 1 2 3 4 4 4 5 5 4 4 3 3 2 2 2 2 3 3 3 3 4 4 4 3 3 3
8 6 6 7 7 7 7 8 9 10 10 7 5 4 3 3 2 1 1 3 4 4 5 6 6 6 5 4 4 3 3 3 3 3 3 2 3 3 4 4 4 4 3
6 6 6 7 6 6 6 6 6 7 7 6 4 4 3 3 3 2 2 3 4 5 5 6 6 6 5 4 4 4 4 4 3 3 2 2 2 2 3 4 5 4 4
6 6 6 6 5 5 5 5 5 5 5 5 4 4 4 4 3 2 2 3 4 4 4 4 4 4 3 2 2 3 4 4 3 3 3 2 2 2 2 3 5 5 5
6 5 4 4 4 4 4 5 4 4 4 5 5 4 4 4 3 2 2 2 3 3 3 3 3 2 1 1 1 2 3 3 4 4 3 3 3 4 4 4 5 5 5
7 6 4 3 4 4 5 5 5 4 4 5 5 5 4 3 3 2 1 1 1 2 2 2 2 1 0 0 1 1 1 2 4 4 4 4 4 4 5 5 6 6 6
7 5 4 4 4 4 5 5 5 5 5 4 4 4 3 3 2 2 1 1 1 1 2 2 1 1 0 0 0 0 1 2 3 4 4 4 4 4 5 6 6 7 7
6 5 4 4 4 5 5 5 5 5 5 4 4 3 3 3 3 3 3 2 1 1 2 2 1 1 1 1 1 1 1 2 3 4 5 5 5 5 5 5 5 6 6
6 6 5 5 5 5 5 5 4 4 4 4 4 4 3 3 2 3 3 3 2 2 2 2 2 2 2 2 2 2 2 3 3 4 5 6 7 7 6 5 5 5 5
5 5 5 5 5 6 6 6 5 4 3 2 3 3 3 2 1 1 2 2 1 1 1 2 2 2 2 2 2 2 3 3 4 4 5 6 8 9 8 6 6 6 6
3 4 4 4 4 5 6 6 5 4 3 2 1 1 1 1 1 0 0 0 0 0 1 1 2 2 2 2 2 2 2 3 4 4 5 6 7 8 8 7 7 7 7
2 3 3 3 4 4 5 5 6 5 5 4 2 1 0 0 0 0 0 0 1 1 1 1 2 3 3 3 2 2 2 2 3 4 5 5 5 6 7 7 7 7 7
3 2 3 3 3 4 4 4 5 5 6 5 4 3 1 0 0 0 0 1 2 2 2 2 2 3 4 3 3 2 2 2 3 4 5 5 5 5 5 5 5 5 5
3 2 2 3 4 4 5 5 5 6 6 5 5 4 3 2 1 1 1 2 3 3 3 3 3 3 4 4 3 2 2 2 2 3 5 5 5 5 4 4 4 4 4
3 3 3 3 4 5 6 6 6 6 6 5 5 4 4 3 3 2 2 3 3 3 4 4 4 4 4 4 3 2 1 1 2 3 4 5 5 4 4 3 3 2 2
4 4 3 4 4 5 6 7 7 7 5 4 4 4 4 4 4 4 3 3 3 3 4 4 4 4 4 4 3 2 1 1 1 2 3 4 4 3 2 2 1 1 1
4 4 4 4 4 5 6 7 7 5 4 3 3 3 4 5 5 5 4 4 4 4 4 3 3 3 3 3 2 2 2 1 1 2 2 2 2 2 1 1 0 0 0
4 4 4 4 4 4 5 5 5 3 2 2 2 3 3 5 5 5 5 5 5 5 4 3 2 2 2 2 2 2 2 2 1 1 1 1 1 1 1 1 0 0 0
3 3 3 3 3 3 3 3 2 2 2 2 2 2 3 4 5 5 5 7 7 7 5 4 2 2 1 1 1 1 1 1 1 1 1 1 1 1 1 0 0 0 0
3 3 3 3 2 2 2 1 1 1 2 2 2 2 2 3 4 4 6 7 8 8 6 4 2 2 1 1 1 1 1 0 0 0 1 1 1 1 0 0 0 0 0

GEFSGL_con_maxscp_330.txt.gz
SCP
10 11 11 9 8 8 10 11 13 16 18 16 11 7 5 4 3 4 4 4 5 5 6 7 7 6 5 4 4 4 4 3 3 3 4 4 4 4 5 5 4 4 4
10 11 12 11 9 8 9 11 14 16 17 16 12 8 5 4 4 4 4 5 5 5 6 7 8 7 6 6 5 4 3 3 3 3 4 4 4 5 5 5 5 4 4
10 11 12 12 11 11 12 13 15 17 18 18 15 10 6 5 4 4 5 5 6 6 6 7 7 7 7 7 6 5 4 3 4 4 4 4 4 5 6 6 5 4 3
14 15 17 17 17 18 18 18 18 18 20 21 19 13 8 6 5 5 6 7 7 6 6 6 6 6 6 7 7 6 5 4 5 5 5 4 4 5 7 6 5 4 3
17 19 22 22 22 21 19 18 18 19 20 21 19 14 9 6 5 5 6 7 7 6 5 5 5 5 5 6 7 7 6 6 6 6 6 5 5 5 5 5 4 3 3
13 16 19 19 18 16 15 15 16 17 17 18 16 12 8 5 3 3 4 5 6 6 6 6 6 5 4 4 5 5 5 5 5 5 5 5 5 4 4 3 3 3 2
10 12 15 15 14 12 12 15 15 14 13 13 12 10 6 4 3 3 3 4 4 5 7 7 6 4 3 3 3 3 4 3 3 4 4 4 3 3 3 3 3 2 2
14 16 18 17 13 11 12 14 13 11 9 9 9 7 5 4 3 3 3 4 4 5 6 6 5 3 3 2 2 3 3 3 2 2 2 2 2 2 2 2 2 2 2
16 17 17 15 12 11 12 12 11 9 8 7 7 6 5 5 4 3 3 4 5 5 4 4 4 4 3 2 2 3 3 3 2 1 1 1 1 1 1 1 2 2 2
11 11 12 11 10 10 11 10 10 8 7 7 6 6 6 6 4 3 2 4 5 4 4 4 4 4 3 2 2 2 3 2 2 2 1 1 1 1 1 1 2 2 2
7 7 8 8 8 8 9 10 10 9 8 7 6 6 7 6 4 3 2 2 3 3 4 4 4 3 2 1 1 2 2 2 2 2 2 2 2 2 2 2 2 2 2
8 8 8 8 7 7 8 10 10 9 8 7 7 7 7 6 4 3 2 1 2 3 4 4 3 2 1 0 1 1 1 1 2 2 2 2 2 2 3 3 3 3 2
10 10 9 9 8 8 8 9 9 8 7 7 7 6 6 6 5 4 3 1 1 2 3 3 3 2 1 0 1 1 1 1 1 2 2 2 2 2 3 4 4 4 4
11 11 11 10 9 8 8 8 7 7 7 7 6 6 6 5 5 5 4 2 1 1 2 2 2 2 1 1 1 1 1 2 2 2 2 2 2 2 2 3 4 5 4
11 11 11 10 9 8 8 7 7 6 5 5 5 5 5 4 4 4 4 3 2 1 1 1 3 3 3 3 2 2 2 2 3 3 2 2 2 2 2 2 3 4 4
10 10 9 9 9 8 8 7 6 5 3 3 3 3 3 3 2 2 2 3 2 1 1 1 2 3 4 4 4 3 2 3 3 3 2 2 2 2 2 2 2 3 3
10 10 9 9 8 8 7 6 5 4 3 2 1 1 1 1 1 0 1 1 1 1 1 1 1 2 3 4 4 4 3 2 2 2 2 2 1 1 1 2 2 2 2
9 8 8 8 8 7 6 5 5 4 4 3 2 1 0 0 0 0 0 0 1 1 1 1 2 2 3 4 4 4 4 3 3 3 2 2 1 1 1 2 2 2 2
8 7 6 6 6 6 6 6 5 5 5 4 4 3 2 1 1 0 0 1 2 3 3 3 3 3 4 4 5 5 6 6 5 5 4 3 2 1 1 2 2 2 2
8 6 4 4 4 4 5 5 5 5 5 6 6 5 4 3 3 2 1 2 3 4 5 5 5 5 5 5 5 5 6 6 7 7 7 5 4 2 2 2 2 2 2
6 5 3 3 3 3 3 4 4 4 5 6 5 5 4 4 5 5 4 3 3 4 5 6 6 6 6 6 6 6 6 6 7 8 8 7 5 4 3 2 2 2 2
5 4 3 2 3 3 3 3 4 5 6 5 4 3 3 3 4 5 6 5 4 4 5 6 6 7 7 7 8 7 6 6 6 6 7 7 6 5 3 2 1 1 1
4 4 3 3 2 3 3 3 3 5 6 5 3 2 2 2 3 4 5 6 6 6 7 8 8 9 9 9 9 8 7 6 6 6 6 6 5 4 3 2 1 1 1
3 3 3 3 3 3 3 3 4 5 6 5 3 2 2 2 3 3 4 5 5 6 8 10 11 11 11 11 10 9 7 6 6 5 5 5 4 3 2 2 2 1 1
4 3 3 3 4 4 4 5 6 8 8 5 2 2 2 2 3 3 3 4 5 6 7 9 11 11 12 12 12 10 7 4 3 3 4 4 3 3 2 2 1 1 1
4 3 3 3 4 4 5 7 9 10 8 5 2 2 2 2 2 3 3 4 5 6 6 7 8 10 11 13 13 10 5 2 1 1 2 4 4 3 2 2 1 1 1